Starlink 3178

operational
NORAD ID: 51467 Int'l Des: 2022-010 Owner: SPXS Country: US Constellation: starlink
LEOCIRCULAR

Starlink 3178について

説明を読み込み中...

リアルタイム位置

3D地球を読み込み中...

次回通過

高度履歴

Altitude vs Time

uPlot chart will show altitude changes over time

軌道要素

1 51467U 22010M 25302.84638179 .00000194 00000-0 30286-4 0 9993
2 51467 53.2158 146.5000 0001432 87.8953 272.2203 15.08845113206760
Epoch: Oct 29, 2025 • Age: 40 hours

現在のステータス

高度 541.0 km
速度 7.60 km/s
衛星直下点 31.09°N, 57.88°W
打ち上げ日 Feb 3, 2022
運用期間 3.7 years
タイプ internet

技術仕様

分類 Payload
質量 297.00 kg
乾燥質量 275.00 kg
総質量 297.00 kg
長さ 0.20 m
直径 2.80 m
スパン 9.00 m
形状 Box + pan
製造者 SPXS
バスタイプ Starlink
フェーズステータス In Orbit
所有者/国 SPXS/US

大規模コンステレーション

Loading constellations...